When you browse on this site, cookies collect data to enhance your experience and personalize the content and advertising you see.
Visit our Privacy Policy to learn more. By continuing to use the site, you agree to this use of cookies and data.
  • In Deutschland
  • Länderverzeichnis
  • Für 7 Tage
  • Wassertemperatur
  • Satellitenkarten
  • Wetterkarte
  • Widgets
  • user-avatar
    Anmelden

    Stündliche Wetter Chelmsford

    Heute, 17 Dezember, Montag

    Zeit Temperatur Niederschläge Wind Luftdruck Luftfeuchtigkeit
    00:00 +6°C° 0 mm 5 m/S 752 mmHg 92%
    01:00 +5°C° 0 mm 5 m/S 753 mmHg 90%
    02:00 +4°C° 0 mm 6 m/S 753 mmHg 89%
    03:00 +4°C° 0 mm 6 m/S 754 mmHg 88%
    04:00 +3°C° 0 mm 6 m/S 755 mmHg 88%
    05:00 +3°C° 0 mm 6 m/S 756 mmHg 88%
    06:00 +3°C° 0 mm 5 m/S 756 mmHg 89%
    07:00 +3°C° 0 mm 5 m/S 757 mmHg 89%
    08:00 +3°C° 0 mm 5 m/S 758 mmHg 89%
    09:00 +3°C° 0 mm 5 m/S 759 mmHg 89%
    10:00 +5°C° 0 mm 5 m/S 759 mmHg 85%
    11:00 +6°C° 0 mm 5 m/S 760 mmHg 81%
    12:00 +7°C° 0 mm 5 m/S 760 mmHg 78%
    13:00 +7°C° 0 mm 4 m/S 760 mmHg 79%
    14:00 +7°C° 0 mm 4 m/S 760 mmHg 81%
    15:00 +8°C° 0 mm 3 m/S 761 mmHg 83%
    16:00 +6°C° 0 mm 4 m/S 761 mmHg 85%
    17:00 +6°C° 0 mm 4 m/S 761 mmHg 87%
    18:00 +6°C° 0 mm 4 m/S 761 mmHg 90%
    19:00 +6°C° 0 mm 5 m/S 761 mmHg 90%
    20:00 +6°C° 0 mm 5 m/S 761 mmHg 90%
    21:00 +7°C° 0 mm 5 m/S 761 mmHg 90%
    22:00 +7°C° 0 mm 5 m/S 761 mmHg 91%
    23:00 +7°C° 0 mm 6 m/S 760 mmHg 91%

    Morgen, 18 Dezember, Dienstag

    Zeit Temperatur Niederschläge Wind Luftdruck Luftfeuchtigkeit
    00:00 +7°C° 0 mm 6 m/S 760 mmHg 91%
    01:00 +7°C° 0 mm 6 m/S 760 mmHg 91%
    02:00 +8°C° 0 mm 6 m/S 759 mmHg 91%
    03:00 +8°C° 0 mm 6 m/S 759 mmHg 91%
    04:00 +8°C° 0 mm 7 m/S 758 mmHg 90%
    05:00 +8°C° 0 mm 7 m/S 758 mmHg 88%
    06:00 +8°C° 0 mm 7 m/S 758 mmHg 87%
    07:00 +7°C° 0 mm 8 m/S 757 mmHg 86%
    08:00 +7°C° 0 mm 8 m/S 757 mmHg 85%
    09:00 +7°C° 0 mm 9 m/S 757 mmHg 84%
    10:00 +7°C° 0 mm 9 m/S 756 mmHg 81%
    11:00 +7°C° 0 mm 10 m/S 755 mmHg 78%
    12:00 +8°C° 0 mm 10 m/S 754 mmHg 74%
    13:00 +7°C° 0.3 mm 10 m/S 753 mmHg 73%
    14:00 +7°C° 0.3 mm 10 m/S 753 mmHg 72%
    15:00 +7°C° 0.3 mm 10 m/S 752 mmHg 72%
    16:00 +7°C° 0.1 mm 10 m/S 751 mmHg 71%
    17:00 +7°C° 0.1 mm 10 m/S 750 mmHg 71%
    18:00 +7°C° 0.1 mm 10 m/S 750 mmHg 71%
    19:00 +7°C° 0.8 mm 10 m/S 749 mmHg 76%
    20:00 +7°C° 0.8 mm 9 m/S 749 mmHg 81%
    21:00 +7°C° 0.8 mm 9 m/S 749 mmHg 86%
    22:00 +7°C° 0.4 mm 8 m/S 750 mmHg 86%
    23:00 +7°C° 0.4 mm 6 m/S 750 mmHg 85%

    übermorgen, 19 Dezember, Mittwoch

    Zeit Temperatur Niederschläge Wind Luftdruck Luftfeuchtigkeit
    00:00 +7°C° 0.4 mm 5 m/S 750 mmHg 85%
    01:00 +6°C° 0 mm 5 m/S 751 mmHg 86%
    02:00 +6°C° 0 mm 5 m/S 751 mmHg 87%
    03:00 +6°C° 0 mm 5 m/S 751 mmHg 88%
    04:00 +6°C° 0.1 mm 5 m/S 751 mmHg 88%
    05:00 +6°C° 0.1 mm 5 m/S 752 mmHg 88%
    06:00 +6°C° 0.1 mm 5 m/S 752 mmHg 89%
    07:00 +6°C° 0.6 mm 5 m/S 752 mmHg 90%
    08:00 +7°C° 0.6 mm 5 m/S 752 mmHg 90%
    09:00 +7°C° 0.6 mm 5 m/S 752 mmHg 91%
    10:00 +7°C° 0.4 mm 5 m/S 752 mmHg 89%
    11:00 +7°C° 0.4 mm 5 m/S 752 mmHg 87%
    12:00 +7°C° 0.4 mm 5 m/S 752 mmHg 85%
    13:00 +7°C° 0 mm 4 m/S 752 mmHg 84%
    14:00 +7°C° 0 mm 4 m/S 752 mmHg 82%
    15:00 +7°C° 0 mm 4 m/S 752 mmHg 80%
    16:00 +6°C° 0.1 mm 4 m/S 753 mmHg 82%
    17:00 +6°C° 0.1 mm 4 m/S 753 mmHg 84%
    18:00 +5°C° 0.1 mm 4 m/S 753 mmHg 86%
    19:00 +5°C° 0.1 mm 4 m/S 753 mmHg 86%
    20:00 +5°C° 0.1 mm 4 m/S 753 mmHg 85%
    21:00 +5°C° 0.1 mm 4 m/S 754 mmHg 85%
    22:00 +5°C° 0 mm 4 m/S 754 mmHg 85%
    23:00 +5°C° 0 mm 4 m/S 754 mmHg 84%

    20 Dezember, Donnerstag

    Zeit Temperatur Niederschläge Wind Luftdruck Luftfeuchtigkeit
    00:00 +5°C° 0 mm 4 m/S 754 mmHg 84%
    01:00 +5°C° 0 mm 4 m/S 754 mmHg 84%
    02:00 +4°C° 0 mm 4 m/S 754 mmHg 84%
    03:00 +4°C° 0 mm 4 m/S 754 mmHg 85%
    04:00 +3°C° 0 mm 5 m/S 754 mmHg 85%
    05:00 +3°C° 0 mm 5 m/S 754 mmHg 85%
    06:00 +3°C° 0 mm 5 m/S 754 mmHg 85%
    07:00 +5°C° 0 mm 5 m/S 754 mmHg 84%
    08:00 +4°C° 0 mm 6 m/S 754 mmHg 84%
    09:00 +5°C° 0 mm 6 m/S 754 mmHg 83%
    10:00 +5°C° 0.1 mm 7 m/S 754 mmHg 80%
    11:00 +6°C° 0.1 mm 7 m/S 754 mmHg 77%
    12:00 +8°C° 0.1 mm 7 m/S 753 mmHg 74%
    13:00 +6°C° 0.2 mm 7 m/S 753 mmHg 75%
    14:00 +6°C° 0.2 mm 7 m/S 753 mmHg 76%
    15:00 +6°C° 0.2 mm 7 m/S 753 mmHg 77%
    16:00 +7°C° 0 mm 6 m/S 753 mmHg 79%
    17:00 +5°C° 0 mm 6 m/S 753 mmHg 80%
    18:00 +5°C° 0 mm 6 m/S 753 mmHg 81%
    19:00 +6°C° 0 mm 5 m/S 754 mmHg 83%
    20:00 +5°C° 0 mm 5 m/S 754 mmHg 84%
    21:00 +5°C° 0 mm 4 m/S 754 mmHg 85%
    22:00 +5°C° 0 mm 4 m/S 754 mmHg 86%
    23:00 +5°C° 0 mm 4 m/S 753 mmHg 86%

    21 Dezember, Freitag

    Zeit Temperatur Niederschläge Wind Luftdruck Luftfeuchtigkeit
    00:00 +5°C° 0 mm 3 m/S 753 mmHg 87%
    01:00 +7°C° 0.7 mm 3 m/S 752 mmHg 90%
    02:00 +7°C° 0.7 mm 3 m/S 752 mmHg 93%
    03:00 +7°C° 0.7 mm 3 m/S 751 mmHg 96%
    04:00 +7°C° 1.5 mm 4 m/S 750 mmHg 96%
    05:00 +8°C° 1.5 mm 4 m/S 750 mmHg 96%
    06:00 +8°C° 1.5 mm 5 m/S 749 mmHg 96%
    07:00 +9°C° 2.4 mm 6 m/S 748 mmHg 95%
    08:00 +10°C° 2.4 mm 6 m/S 747 mmHg 94%
    09:00 +10°C° 2.4 mm 7 m/S 746 mmHg 94%
    10:00 +10°C° 0.2 mm 8 m/S 747 mmHg 86%
    11:00 +10°C° 0.2 mm 9 m/S 747 mmHg 79%
    12:00 +9°C° 0.2 mm 11 m/S 748 mmHg 71%
    13:00 +8°C° 0 mm 10 m/S 749 mmHg 71%
    14:00 +8°C° 0 mm 9 m/S 750 mmHg 71%
    15:00 +8°C° 0 mm 9 m/S 751 mmHg 70%
    16:00 +7°C° 0 mm 8 m/S 752 mmHg 73%
    17:00 +7°C° 0 mm 8 m/S 752 mmHg 76%
    18:00 +7°C° 0 mm 8 m/S 753 mmHg 79%
    19:00 +7°C° 0 mm 8 m/S 753 mmHg 79%
    20:00 +7°C° 0 mm 8 m/S 753 mmHg 80%
    21:00 +7°C° 0 mm 8 m/S 753 mmHg 80%
    22:00 +7°C° 0.1 mm 8 m/S 753 mmHg 81%
    23:00 +8°C° 0.1 mm 9 m/S 753 mmHg 81%

    22 Dezember, Samstag

    Zeit Temperatur Niederschläge Wind Luftdruck Luftfeuchtigkeit
    00:00 +8°C° 0.1 mm 9 m/S 753 mmHg 81%
    01:00 +8°C° 0 mm 9 m/S 753 mmHg 80%
    02:00 +7°C° 0 mm 9 m/S 754 mmHg 78%
    03:00 +7°C° 0 mm 9 m/S 754 mmHg 77%
    04:00 +6°C° 0 mm 8 m/S 755 mmHg 77%
    05:00 +6°C° 0 mm 8 m/S 755 mmHg 77%
    06:00 +6°C° 0 mm 8 m/S 756 mmHg 77%
    07:00 +6°C° 0 mm 8 m/S 757 mmHg 78%
    08:00 +6°C° 0 mm 7 m/S 757 mmHg 79%
    09:00 +5°C° 0 mm 6 m/S 758 mmHg 80%
    10:00 +7°C° 0 mm 6 m/S 758 mmHg 79%
    11:00 +8°C° 0 mm 6 m/S 759 mmHg 78%
    12:00 +9°C° 0 mm 6 m/S 759 mmHg 76%
    13:00 +8°C° 0 mm 5 m/S 759 mmHg 80%
    14:00 +8°C° 0 mm 4 m/S 759 mmHg 83%
    15:00 +8°C° 0 mm 4 m/S 759 mmHg 86%
    16:00 +9°C° 0 mm 3 m/S 760 mmHg 89%
    17:00 +8°C° 0 mm 3 m/S 760 mmHg 91%
    18:00 +8°C° 0 mm 3 m/S 760 mmHg 94%
    19:00 +8°C° 0 mm 3 m/S 760 mmHg 94%
    20:00 +8°C° 0 mm 3 m/S 760 mmHg 95%
    21:00 +8°C° 0 mm 2 m/S 760 mmHg 95%
    22:00 +8°C° 0 mm 2 m/S 760 mmHg 95%
    23:00 +8°C° 0 mm 3 m/S 760 mmHg 96%
    Mehr zeigen